Weather in Kulynychi

Ukraine / Kharkiv Region     49°59′06″N   36°23′16″E
temp.,
°C
wind,
m/s
gust,
m/s
humid.,
%
clouds,
%
prec.,
mm/h
press.,
hPa
HPBL,
m
7 may, fri
fri700:00+9nnw5789100 0.8 1012354
03:00+9nnw3690100 3.1 1013474
06:00+8nw369580 0.0 1014288
09:00+12nnw23675 0.0 1015697
12:00+16w234599 0.0 10152014
15:00+17sw3438100 0.0 10152333
18:00+16ssw354883 0.0 10141034
21:00+13sse476066 0.0 1014177
8 may, sat
sat800:00+11se6146297 0.0 1013372
03:00+12sse61559100 0.0 1012536
06:00+12s51269100 0.1 1011551
09:00+12sse71681100 0.2 1009707
12:00+12s81690100 2.4 1007973
15:00+13sw61192100 5.6 1008974
18:00+12w61085100 0.4 1009818
21:00+8wnw51284100 0.4 1012716
9 may, sun
sun900:00+7nw61083100 0.1 1014859
03:00+6nw41083100 0.1 1015810
06:00+5nw51186100 0.0 1017674
09:00+7nnw6966100 0.0 10191064
12:00+11nnw7947100 0.0 10191904
15:00+13nnw7940100 0.0 10202621
18:00+11n6105418 0.1 10221999
21:00+7nnw396914 0.3 1025361
10 may, mon
mon1000:00+6nnw37750 0.0 1026193
03:00+5nnw39750 0.0 1027225
06:00+5nnw411741 0.0 1028272
09:00+10n610544 0.0 10281315
12:00+13n810435 0.0 10261789
15:00+14n911425 0.0 10251917
18:00+13n81354100 0.0 10241693
21:00+12nne81455100 0.0 10241202
11 may, tue
tue1100:00+11nne91756100 0.0 1022883
03:00+10nne81659100 0.0 1022676
06:00+10nne7156397 0.0 1021604
09:00+12ne9176798 0.0 1022871
12:00+10ne7138699 0.1 1022712
15:00+13ene61175100 0.2 10221306
18:00+14ene596011 0.1 10221433
21:00+11e3872100 0.1 1023429